Lid_Strength_Index
4 5 5 5 5 4 4 4 5 4 5 6 7 7 7 8 8 8 8 8 8 8 8 8 9 10 10 10 10 11 10 11 11 10 10 10 10 10 10 10 11 11 11
5 5 6 6 5 5 4 5 5 4 5 5 6 7 7 8 8 8 9 8 8 8 8 9 10 10 11 11 11 11 11 11 11 11 12 12 12 10 10 10 11 11 11
5 5 6 6 6 5 4 5 5 4 5 6 8 8 8 9 9 9 9 8 8 8 8 9 10 10 10 11 11 11 12 12 12 11 12 13 14 13 11 11 11 12 12
5 5 5 7 7 6 4 5 5 4 5 7 7 8 8 9 9 9 9 9 8 8 8 9 10 10 11 11 11 11 11 12 13 12 12 11 12 14 14 12 12 12 12
5 5 5 5 6 6 5 4 5 5 6 7 7 8 8 8 9 9 9 9 8 8 9 10 11 11 11 11 12 11 12 12 12 12 12 13 12 12 13 15 13 12 12
5 5 4 5 6 6 5 5 5 5 6 6 7 7 8 9 9 9 9 9 9 10 10 11 11 11 12 12 12 12 12 12 12 12 12 13 13 14 14 15 15 14 13
5 5 5 5 5 6 5 5 5 6 6 6 7 8 8 8 9 9 9 9 10 11 11 12 12 12 12 12 12 12 12 12 12 13 13 13 13 13 13 14 15 15 14
5 5 5 5 5 5 5 6 6 6 6 6 7 7 8 8 9 8 8 9 10 11 11 12 12 12 12 12 12 12 12 12 12 13 13 13 13 13 13 14 15 16 15
5 5 5 5 4 5 5 5 6 6 6 6 7 9 8 8 9 8 8 9 10 11 12 12 12 12 12 12 12 12 12 12 13 13 13 13 13 12 12 13 13 15 17
6 5 5 5 4 5 5 4 5 6 6 6 7 8 9 8 9 10 9 10 11 12 12 12 12 13 13 12 12 13 13 13 13 12 13 13 13 13 12 13 13 13 15
6 5 5 5 5 5 4 5 5 6 7 7 6 8 9 9 10 10 10 10 12 12 12 12 12 13 13 13 13 13 13 13 13 13 13 13 13 13 13 13 13 13 14
5 5 4 5 5 5 5 5 6 7 8 7 7 8 9 9 10 10 12 12 12 12 12 12 13 13 13 13 13 13 13 14 14 13 13 13 13 13 13 13 13 13 13
6 5 5 5 5 6 5 6 6 7 8 8 8 9 9 10 12 13 12 12 12 13 13 13 13 13 13 13 13 13 14 13 13 13 13 13 13 13 13 13 13 13 13
7 6 5 5 5 6 6 6 6 7 8 8 10 11 11 12 13 14 13 14 13 13 14 13 13 13 13 13 13 13 13 13 13 13 13 13 13 13 13 13 13 13 14
8 7 6 5 6 6 6 6 7 9 9 10 11 12 12 13 13 13 12 13 13 14 14 13 14 14 13 13 13 13 13 13 14 13 13 13 13 12 12 13 13 13 14
8 7 6 6 6 7 7 9 9 10 10 11 13 13 14 14 14 14 14 14 14 14 14 14 14 14 13 12 12 12 13 14 14 14 14 13 13 13 12 12 12 12 13
9 8 8 7 7 9 10 10 11 11 12 13 14 14 15 15 15 14 14 14 14 14 15 15 14 14 14 12 12 12 14 14 14 14 14 14 13 13 13 12 11 11 10
9 9 9 9 9 10 11 11 11 13 14 14 15 15 16 16 16 15 15 15 14 15 15 15 15 15 14 13 12 12 13 14 14 13 14 14 13 13 12 12 12 11 11
9 9 10 11 11 11 12 13 14 14 15 16 16 16 16 17 16 15 15 15 15 15 15 15 15 16 15 13 13 13 14 14 13 13 13 13 13 12 11 12 12 12 12
9 11 11 12 13 13 14 14 15 15 16 16 17 17 16 16 16 16 16 15 14 15 15 16 16 14 15 13 13 13 13 14 14 13 13 12 12 11 10 11 12 13 13
12 12 13 13 13 13 13 16 16 17 16 16 16 16 16 16 15 15 15 15 16 16 16 16 16 15 15 15 13 12 13 13 13 13 13 13 11 10 10 10 12 13 11
13 13 14 14 14 14 15 17 18 17 16 16 16 16 16 16 16 16 16 16 16 16 16 16 16 15 15 13 13 12 12 12 13 14 13 13 11 11 11 12 12 11 12
14 14 14 15 14 14 14 16 16 16 16 16 17 16 16 16 15 16 16 16 16 17 17 16 16 16 15 15 13 12 11 12 13 13 12 12 12 12 13 13 12 12 12
15 15 15 16 16 16 16 16 15 15 16 16 16 16 16 16 16 15 15 16 17 17 16 16 16 16 15 15 14 13 13 12 12 12 13 13 13 13 13 14 13 12 11
15 16 16 17 17 16 16 16 16 16 16 16 16 16 16 16 16 16 16 16 16 15 16 16 15 16 15 14 12 12 12 11 11 12 14 15 15 15 14 12 12 11 11
16 16 16 17 16 16 16 16 15 15 16 17 17 17 16 16 16 16 15 13 13 13 13 13 13 14 13 12 12 11 11 11 11 14 15 16 15 15 13 13 12 12 11